Location: Igri�s
(42.2144°N, 0.4320°W)
Time: 17:31:26
(UTC+00:00)

Meteor 1-27 Rocket - Pass Details

Date: 13 August 2020
Orbit: 831 x 909 km, 81.3° (Epoch: 19 September)

Event Time Altitude Azimuth Distance (km) Brightness Sun altitude
Rises 19:53:03 0° 352° (N) 3,538 7.5 -8.9°
Reaches altitude 10° 19:55:33 10° 356° (N) 2,598 6.7 -9.4°
Maximum altitude 20:01:28 66° 78° (ENE) 992 3.9 -10.3°
Drops below altitude 10° 20:07:20 10° 160° (SSE) 2,582 5.8 -11.2°
Enters shadow 20:08:18 - 162° (SSE) 2,945 6.1 -11.4°
